KC5EZZ-2 Weather Reports


Display with metric or nautical units.
time (UTC)temp
F
wind
direction
speed
MPH
gust
MPH
rain 1hr
in
rain 24hr
in
rain mn
in
humidity
%
barometer
mb
20240424061606 68 156 5.0 5.0 0.00 0.00 0.00
20240424061103 68 176 6.0 6.0 0.00 0.00 0.00
20240424060604 68 146 7.0 4.0 0.00 0.00 0.00
20240424060104 68 146 7.0 7.0 0.00 0.00 0.00
20240424055602 68 134 6.0 5.0 0.00 0.00 0.00
20240424055102 68 169 11.0 7.0 0.00 0.00 0.00
20240424054603 68 139 11.0 8.0 0.00 0.00 0.00
20240424054100 69 145 11.0 9.0 0.00 0.00 0.00
20240424053601 69 156 11.0 12.0 0.00 0.00 0.00
20240424053101 69 162 9.0 8.0 0.00 0.00 0.00
20240424052559 69 183 8.0 8.0 0.00 0.00 0.00
20240424052100 69 159 9.0 12.0 0.00 0.00 0.00
20240424051600 69 156 8.0 11.0 0.00 0.00 0.00
20240424051058 70 148 7.0 11.0 0.00 0.00 0.00
20240424050558 70 145 11.0 8.0 0.00 0.00 0.00
20240424050059 70 143 9.0 11.0 0.00 0.00 0.00
20240424045556 70 155 9.0 7.0 0.00 0.00 0.00
20240424045057 70 160 7.0 9.0 0.00 0.00 0.00
20240424044557 70 158 12.0 10.0 0.00 0.00 0.00
20240424044055 70 160 8.0 10.0 0.00 0.00 0.00
20240424043555 71 103 7.0 5.0 0.00 0.00 0.00
20240424043056 71 103 9.0 8.0 0.00 0.00 0.00
20240424042553 71 115 8.0 9.0 0.00 0.00 0.00
20240424042054 71 158 8.0 9.0 0.00 0.00 0.00
20240424041554 71 101 7.0 8.0 0.00 0.00 0.00
20240424041052 71 82 6.0 8.0 0.00 0.00 0.00
20240424040553 71 104 5.0 6.0 0.00 0.00 0.00
20240424040053 72 131 7.0 7.0 0.00 0.00 0.00
20240424035551 72 121 6.0 8.0 0.00 0.00 0.00
20240424035051 72 111 7.0 6.0 0.00 0.00 0.00
20240424034552 73 115 7.0 8.0 0.00 0.00 0.00
20240424034050 73 135 9.0 9.0 0.00 0.00 0.00
20240424033550 73 146 11.0 11.0 0.00 0.00 0.00
20240424033051 73 139 9.0 11.0 0.00 0.00 0.00
20240424032548 73 163 12.0 11.0 0.00 0.00 0.00
20240424032049 74 121 11.0 15.0 0.00 0.00 0.00
20240424031549 74 148 10.0 12.0 0.00 0.00 0.00
20240424031047 75 121 14.0 13.0 0.00 0.00 0.00
20240424030548 75 159 13.0 12.0 0.00 0.00 0.00
20240424030048 76 177 15.0 14.0 0.00 0.00 0.00
20240424025546 76 143 9.0 11.0 0.00 0.00 0.00
20240424025046 76 128 6.0 7.0 0.00 0.00 0.00
20240424024547 77 152 6.0 9.0 0.00 0.00 0.00
20240424024044 77 138 11.0 13.0 0.00 0.00 0.00
20240424023545 77 155 6.0 6.0 0.00 0.00 0.00
20240424023045 77 149 6.0 6.0 0.00 0.00 0.00
20240424022543 77 172 6.0 6.0 0.00 0.00 0.00
20240424022044 78 158 9.0 10.0 0.00 0.00 0.00
20240424021544 78 181 8.0 11.0 0.00 0.00 0.00
20240424021042 78 146 8.0 6.0 0.00 0.00 0.00
20240424020543 78 170 7.0 10.0 0.00 0.00 0.00
20240424020043 79 173 10.0 8.0 0.00 0.00 0.00
20240424015541 79 165 8.0 7.0 0.00 0.00 0.00
20240424015041 79 20 11.0 9.0 0.00 0.00 0.00
20240424014542 80 278 11.0 10.0 0.00 0.00 0.00
20240424014040 80 162 8.0 7.0 0.00 0.00 0.00
20240424013540 80 27 8.0 8.0 0.00 0.00 0.00
20240424013041 80 187 8.0 8.0 0.00 0.00 0.00
20240424012539 80 1 10.0 9.0 0.00 0.00 0.00
20240424012039 81 1 9.0 9.0 0.00 0.00 0.00
20240424011540 82 353 8.0 13.0 0.00 0.00 0.00
20240424011037 83 6 7.0 8.0 0.00 0.00 0.00
20240424010538 83 165 10.0 10.0 0.00 0.00 0.00
20240424010038 84 21 4.0 9.0 0.00 0.00 0.00
20240424005536 85 359 6.0 11.0 0.00 0.00 0.00
20240424005036 84 359 8.0 6.0 0.00 0.00 0.00
20240424004537 85 359 7.0 5.0 0.00 0.00 0.00
20240424004034 86 326 4.0 12.0 0.00 0.00 0.00
20240424003535 86 359 4.0 6.0 0.00 0.00 0.00
20240424003035 86 300 6.0 9.0 0.00 0.00 0.00
20240424002533 87 359 7.0 8.0 0.00 0.00 0.00
20240424002033 87 359 3.0 1.0 0.00 0.00 0.00
20240424001534 87 359 5.0 1.0 0.00 0.00 0.00
20240424001031 88 359 5.0 10.0 0.00 0.00 0.00
20240424000531 88 359 1.0 11.0 0.00 0.00 0.00
20240424000032 87 359 6.0 9.0 0.00 0.00 0.00
20240423235529 88 0 5.0 0.0 0.00 0.00 0.00
20240423235030 88 359 9.0 6.0 0.00 0.00 0.00
20240423234530 89 359 8.0 6.0 0.00 0.00 0.00
20240423234028 89 359 8.0 5.0 0.00 0.00 0.00
20240423233528 89 10 8.0 14.0 0.00 0.00 0.00
20240423233029 90 359 7.0 3.0 0.00 0.00 0.00
20240423232526 89 263 7.0 6.0 0.00 0.00 0.00
20240423232027 90 346 10.0 9.0 0.00 0.00 0.00
20240423231527 90 359 7.0 1.0 0.00 0.00 0.00
20240423231025 89 4 7.0 1.0 0.00 0.00 0.00
20240423230525 90 359 5.0 4.0 0.00 0.00 0.00
20240423230025 90 359 4.0 6.0 0.00 0.00 0.00
20240423225523 90 359 1.0 0.0 0.00 0.00 0.00
20240423225023 90 359 2.0 8.0 0.00 0.00 0.00
20240423224523 91 359 0.0 0.0 0.00 0.00 0.00
20240423224021 90 359 0.0 0.0 0.00 0.00 0.00
20240423223521 91 359 0.0 1.0 0.00 0.00 0.00
20240423223021 90 359 0.0 10.0 0.00 0.00 0.00
20240423222519 89 357 0.0 0.0 0.00 0.00 0.00
20240423222019 90 359 2.0 2.0 0.00 0.00 0.00
20240423221519 91 359 6.0 8.0 0.00 0.00 0.00
20240423221017 91 359 2.0 11.0 0.00 0.00 0.00
20240423220517 91 359 5.0 6.0 0.00 0.00 0.00
20240423215515 92 359 6.0 3.0 0.00 0.00 0.00
20240423215015 91 359 4.0 11.0 0.00 0.00 0.00
20240423214515 92 218 3.0 10.0 0.00 0.00 0.00
20240423214012 91 242 8.0 7.0 0.00 0.00 0.00
20240423213513 91 359 2.0 10.0 0.00 0.00 0.00
20240423213013 91 180 8.0 7.0 0.00 0.00 0.00
20240423212510 91 73 7.0 7.0 0.00 0.00 0.00
20240423211511 91 359 6.0 10.0 0.00 0.00 0.00
20240423211009 92 14 6.0 9.0 0.00 0.00 0.00
20240423210509 91 28 5.0 6.0 0.00 0.00 0.00
20240423210009 90 359 5.0 5.0 0.00 0.00 0.00
20240423205507 90 359 7.0 0.0 0.00 0.00 0.00
20240423205007 90 359 8.0 2.0 0.00 0.00 0.00
20240423204507 90 359 2.0 1.0 0.00 0.00 0.00
20240423204005 91 359 5.0 1.0 0.00 0.00 0.00
20240423203505 90 359 5.0 6.0 0.00 0.00 0.00
20240423203006 90 49 8.0 9.0 0.00 0.00 0.00
20240423202503 90 359 4.0 7.0 0.00 0.00 0.00
20240423202004 89 177 5.0 5.0 0.00 0.00 0.00
20240423201504 89 195 7.0 9.0 0.00 0.00 0.00
20240423201001 89 28 8.0 13.0 0.00 0.00 0.00
20240423200502 89 359 9.0 6.0 0.00 0.00 0.00
20240423200002 90 49 6.0 2.0 0.00 0.00 0.00
20240423195500 90 359 7.0 8.0 0.00 0.00 0.00
20240423195000 88 359 9.0 6.0 0.00 0.00 0.00
20240423193958 88 41 9.0 9.0 0.00 0.00 0.00
20240423193459 88 357 8.0 12.0 0.00 0.00 0.00
20240423192959 88 174 8.0 4.0 0.00 0.00 0.00
20240423192457 87 193 9.0 8.0 0.00 0.00 0.00
20240423191957 87 188 9.0 9.0 0.00 0.00 0.00
20240423190955 88 359 8.0 12.0 0.00 0.00 0.00
20240423190456 86 28 9.0 9.0 0.00 0.00 0.00
20240423185956 85 359 9.0 12.0 0.00 0.00 0.00
20240423185454 85 200 9.0 9.0 0.00 0.00 0.00
20240423184954 85 359 12.0 6.0 0.00 0.00 0.00
20240423184455 85 359 10.0 4.0 0.00 0.00 0.00
20240423183952 85 184 10.0 9.0 0.00 0.00 0.00
20240423183453 84 188 9.0 9.0 0.00 0.00 0.00
20240423182953 84 193 11.0 10.0 0.00 0.00 0.00
20240423182451 84 188 10.0 11.0 0.00 0.00 0.00
20240423181951 84 276 9.0 12.0 0.00 0.00 0.00
20240423181452 84 359 9.0 2.0 0.00 0.00 0.00
20240423180450 82 170 11.0 14.0 0.00 0.00 0.00
20240423175951 83 58 11.0 14.0 0.00 0.00 0.00
20240423175448 82 217 9.0 9.0 0.00 0.00 0.00
20240423174949 81 221 9.0 9.0 0.00 0.00 0.00
20240423174449 80 180 10.0 13.0 0.00 0.00 0.00
20240423172445 80 165 7.0 14.0 0.00 0.00 0.00
20240423171945 80 139 10.0 12.0 0.00 0.00 0.00
20240423171446 79 207 11.0 11.0 0.00 0.00 0.00
20240423170943 79 203 11.0 8.0 0.00 0.00 0.00
20240423170444 79 197 10.0 7.0 0.00 0.00 0.00
20240423165944 78 169 9.0 6.0 0.00 0.00 0.00
20240423165442 78 17 8.0 12.0 0.00 0.00 0.00
20240423164942 78 359 2.0 3.0 0.00 0.00 0.00
20240423164443 77 359 4.0 0.0 0.00 0.00 0.00
20240423163941 77 225 9.0 9.0 0.00 0.00 0.00
20240423163441 76 170 11.0 16.0 0.00 0.00 0.00
20240423162942 76 359 11.0 4.0 0.00 0.00 0.00
20240423162439 75 195 11.0 13.0 0.00 0.00 0.00
20240423161940 75 195 9.0 14.0 0.00 0.00 0.00
20240423161440 75 173 13.0 9.0 0.00 0.00 0.00
20240423160938 75 177 10.0 10.0 0.00 0.00 0.00
20240423160438 73 200 12.0 9.0 0.00 0.00 0.00
20240423155939 74 163 10.0 15.0 0.00 0.00 0.00
20240423155436 72 191 9.0 8.0 0.00 0.00 0.00
20240423154937 72 195 11.0 11.0 0.00 0.00 0.00
20240423154437 72 186 13.0 10.0 0.00 0.00 0.00
20240423153935 72 208 11.0 11.0 0.00 0.00 0.00
20240423153435 72 173 14.0 6.0 0.00 0.00 0.00
20240423152936 72 194 10.0 10.0 0.00 0.00 0.00
20240423152433 71 170 11.0 15.0 0.00 0.00 0.00
20240423151934 71 359 14.0 16.0 0.00 0.00 0.00
20240423151434 71 83 13.0 15.0 0.00 0.00 0.00
20240423150932 70 181 10.0 11.0 0.00 0.00 0.00
20240423150432 70 172 9.0 9.0 0.00 0.00 0.00
20240423145933 69 188 9.0 14.0 0.00 0.00 0.00
20240423145430 69 179 9.0 14.0 0.00 0.00 0.00
20240423144931 68 204 11.0 12.0 0.00 0.00 0.00
20240423144432 68 180 13.0 13.0 0.00 0.00 0.00
20240423143929 68 183 11.0 13.0 0.00 0.00 0.00
20240423143430 68 203 13.0 11.0 0.00 0.00 0.00
20240423142930 68 73 9.0 14.0 0.00 0.00 0.00
20240423142428 68 181 12.0 13.0 0.00 0.00 0.00
20240423141928 68 200 13.0 12.0 0.00 0.00 0.00
20240423141429 68 197 11.0 11.0 0.00 0.00 0.00
20240423140927 68 195 8.0 11.0 0.00 0.00 0.00
20240423140427 67 170 10.0 10.0 0.00 0.00 0.00
20240423135928 67 143 11.0 12.0 0.00 0.00 0.00
20240423135425 67 170 9.0 9.0 0.00 0.00 0.00
20240423134926 66 150 10.0 9.0 0.00 0.00 0.00
20240423134426 64 181 12.0 11.0 0.00 0.00 0.00
20240423133924 65 198 14.0 13.0 0.00 0.00 0.00
20240423133424 64 180 11.0 11.0 0.00 0.00 0.00
20240423132925 64 200 11.0 9.0 0.00 0.00 0.00
20240423132422 63 191 13.0 14.0 0.00 0.00 0.00
20240423131923 63 181 10.0 10.0 0.00 0.00 0.00
20240423131423 63 156 10.0 9.0 0.00 0.00 0.00
20240423130921 63 346 10.0 16.0 0.00 0.00 0.00
20240423130421 63 197 13.0 13.0 0.00 0.00 0.00
20240423125922 64 193 10.0 7.0 0.00 0.00 0.00
20240423125420 63 194 11.0 9.0 0.00 0.00 0.00
20240423124920 62 174 11.0 12.0 0.00 0.00 0.00
20240423124421 62 188 9.0 14.0 0.00 0.00 0.00
20240423123918 62 195 10.0 8.0 0.00 0.00 0.00
20240423123419 61 195 9.0 7.0 0.00 0.00 0.00
20240423122920 61 201 9.0 9.0 0.00 0.00 0.00
20240423122417 60 194 11.0 11.0 0.00 0.00 0.00
20240423121918 60 197 12.0 13.0 0.00 0.00 0.00
20240423121419 60 194 8.0 10.0 0.00 0.00 0.00
20240423120916 60 191 10.0 10.0 0.00 0.00 0.00
20240423120417 60 174 12.0 12.0 0.00 0.00 0.00
20240423115918 59 198 10.0 12.0 0.00 0.00 0.00
20240423115415 60 203 9.0 9.0 0.00 0.00 0.00
20240423114916 60 195 9.0 14.0 0.00 0.00 0.00
20240423114417 60 190 15.0 12.0 0.00 0.00 0.00
20240423113914 59 166 13.0 13.0 0.00 0.00 0.00
20240423113415 59 194 9.0 10.0 0.00 0.00 0.00
20240423112413 59 191 7.0 7.0 0.00 0.00 0.00
20240423111914 59 193 7.0 6.0 0.00 0.00 0.00
20240423111414 59 186 9.0 10.0 0.00 0.00 0.00
20240423110912 60 212 9.0 7.0 0.00 0.00 0.00
20240423110412 59 198 10.0 11.0 0.00 0.00 0.00
20240423105913 59 207 8.0 7.0 0.00 0.00 0.00
20240423105411 59 204 8.0 7.0 0.00 0.00 0.00
20240423105003 59 198 9.0 5.0 0.00 0.00 0.00
20240423104911 59 198 9.0 5.0 0.00 0.00 0.00
20240423104412 59 177 7.0 6.0 0.00 0.00 0.00
20240423104214 59 188 8.0 6.0 0.00 0.00 0.00
20240423103909 59 188 8.0 6.0 0.00 0.00 0.00
20240423103448 59 163 7.0 5.0 0.00 0.00 0.00
20240423103410 59 163 7.0 5.0 0.00 0.00 0.00
20240423102911 59 177 8.0 11.0 0.00 0.00 0.00
20240423102408 60 184 8.0 9.0 0.00 0.00 0.00
20240423101909 59 200 8.0 6.0 0.00 0.00 0.00
20240423101409 59 200 8.0 9.0 0.00 0.00 0.00
20240423100906 59 203 8.0 7.0 0.00 0.00 0.00
20240423100406 59 190 8.0 6.0 0.00 0.00 0.00
20240423095907 59 191 9.0 6.0 0.00 0.00 0.00
20240423095404 59 180 6.0 9.0 0.00 0.00 0.00
20240423094905 58 177 6.0 11.0 0.00 0.00 0.00
20240423094405 59 176 6.0 6.0 0.00 0.00 0.00
20240423093902 58 187 5.0 8.0 0.00 0.00 0.00
20240423093402 59 194 7.0 9.0 0.00 0.00 0.00
20240423092903 59 205 9.0 7.0 0.00 0.00 0.00
20240423092400 59 180 10.0 11.0 0.00 0.00 0.00
20240423091901 59 193 8.0 9.0 0.00 0.00 0.00
20240423091401 58 159 8.0 8.0 0.00 0.00 0.00
20240423090859 59 167 7.0 6.0 0.00 0.00 0.00
20240423090359 59 174 7.0 6.0 0.00 0.00 0.00
20240423085900 59 193 6.0 8.0 0.00 0.00 0.00
20240423085357 58 186 6.0 7.0 0.00 0.00 0.00
20240423084858 58 187 6.0 8.0 0.00 0.00 0.00
20240423084358 58 203 3.0 5.0 0.00 0.00 0.00
20240423083856 58 174 5.0 6.0 0.00 0.00 0.00
20240423083357 58 180 6.0 7.0 0.00 0.00 0.00
20240423082857 59 176 6.0 4.0 0.00 0.00 0.00
20240423082355 58 173 5.0 3.0 0.00 0.00 0.00
20240423081856 58 186 5.0 6.0 0.00 0.00 0.00
20240423081356 59 165 6.0 6.0 0.00 0.00 0.00
20240423080854 59 169 5.0 2.0 0.00 0.00 0.00
20240423080354 59 179 4.0 6.0 0.00 0.00 0.00
20240423075855 59 173 6.0 6.0 0.00 0.00 0.00
20240423075353 59 205 5.0 5.0 0.00 0.00 0.00
20240423074853 59 166 6.0 6.0 0.00 0.00 0.00
20240423074354 59 201 8.0 4.0 0.00 0.00 0.00
20240423073851 59 160 7.0 6.0 0.00 0.00 0.00
20240423073352 59 181 8.0 8.0 0.00 0.00 0.00
20240423072852 59 169 7.0 7.0 0.00 0.00 0.00
20240423072350 60 187 7.0 7.0 0.00 0.00 0.00
20240423071850 59 179 9.0 5.0 0.00 0.00 0.00
20240423071351 60 176 7.0 8.0 0.00 0.00 0.00
20240423070848 60 172 7.0 5.0 0.00 0.00 0.00
20240423070349 60 172 7.0 8.0 0.00 0.00 0.00
20240423065849 60 166 4.0 5.0 0.00 0.00 0.00
20240423065345 60 146 7.0 5.0 0.00 0.00 0.00
20240423064845 60 170 4.0 3.0 0.00 0.00 0.00
20240423064346 60 190 4.0 6.0 0.00 0.00 0.00
20240423063843 60 173 7.0 9.0 0.00 0.00 0.00
20240423063344 60 159 8.0 7.0 0.00 0.00 0.00
20240423062844 61 174 5.0 6.0 0.00 0.00 0.00
20240423062342 60 158 10.0 9.0 0.00 0.00 0.00